CW4226 Weather Reports


time (UTC)temp
F
wind
direction
speed
knots
gust
knots
rain 1hr
in
rain 24hr
in
rain mn
in
humidity
%
barometer
mb
20211017154832 49 286 0.9 2.6 0.00 0.52 0.00 90 1005.5
20211017154334 50 100 0.9 4.3 0.00 0.52 0.00 89 1005.4
20211017153834 50 260 0.9 6.1 0.00 0.52 0.00 89 1005.4
20211017153332 51 18 1.7 4.3 0.00 0.52 0.00 88 1005.3
20211017151834 50 121 2.6 5.2 0.00 0.52 0.00 92 1005.5
20211017151333 49 251 1.7 5.2 0.00 0.52 0.00 95 1005.6
20211017150832 49 195 1.7 5.2 0.00 0.52 0.00 95 1005.6
20211017150331 49 139 0.9 4.3 0.00 0.52 0.00 95 1005.5
20211017144831 49 269 1.7 4.3 0.00 0.52 0.00 93 1005.8
20211017144335 49 117 0.9 2.6 0.00 0.52 0.00 95 1005.6
20211017143834 50 270 1.7 5.2 0.00 0.52 0.00 94 1005.6
20211017143332 50 222 1.7 6.1 0.00 0.52 0.00 93 1005.6
20211017141832 50 101 0.9 1.7 0.00 0.52 0.00 94 1005.5
20211017141331 50 329 1.7 5.2 0.00 0.52 0.00 93 1005.4
20211017140831 50 168 1.7 5.2 0.00 0.52 0.00 95 1005.4
20211017140332 50 235 1.7 10.4 0.00 0.52 0.00 96 1005.2
20211017134831 49 135 1.7 6.1 0.00 0.52 0.00 100 1005.3
20211017134331 48 212 1.7 6.1 0.00 0.52 0.00 100 1005.4
20211017133831 47 139 1.7 6.1 0.00 0.52 0.00 100 1005.5
20211017133332 46 185 1.7 4.3 0.00 0.52 0.00 100 1005.5
20211017131835 46 221 2.6 4.3 0.00 0.52 0.00 100 1005.4
20211017131331 47 1 1.7 2.6 0.00 0.52 0.00 100 1005.4
20211017130834 46 149 0.9 2.6 0.00 0.52 0.00 100 1005.3
20211017130331 46 163 0.9 2.6 0.00 0.52 0.00 100 1005.3
20211017124831 45 159 0.9 5.2 0.00 0.52 0.00 100 1005.2
20211017124331 46 177 0.9 2.6 0.00 0.52 0.00 100 1005.2
20211017123834 45 197 0.9 2.6 0.00 0.52 0.00 100 1005.2
20211017123332 45 153 0.9 2.6 0.00 0.52 0.00 100 1005.2
20211017121831 44 62 0.9 4.3 0.00 0.52 0.00 100 1005.2
20211017121334 43 152 0.9 2.6 0.00 0.52 0.00 100 1005.2
20211017120831 43 106 0.9 4.3 0.00 0.52 0.00 100 1005.2
20211017120334 42 228 1.7 5.2 0.00 0.52 0.00 100 1005.3
20211017114834 42 176 0.9 2.6 0.00 0.52 0.00 100 1005.4
20211017114331 42 191 0.9 2.6 0.00 0.52 0.00 100 1005.2
20211017113832 42 182 0.9 2.6 0.00 0.52 0.00 100 1005.1
20211017113334 42 164 0.9 2.6 0.00 0.52 0.00 100 1005.0
20211017111834 42 102 1.7 2.6 0.00 0.52 0.00 100 1005.0
20211017111331 42 181 0.9 1.7 0.00 0.52 0.00 100 1005.0
20211017110831 42 181 0.9 1.7 0.00 0.52 0.00 100 1004.9
20211017110333 42 161 0.9 2.6 0.00 0.52 0.00 100 1004.7
20211017104834 42 124 0.0 0.9 0.00 0.52 0.00 100 1004.7
20211017104331 42 124 0.9 1.7 0.00 0.52 0.00 100 1004.7
20211017103834 42 164 0.9 2.6 0.00 0.52 0.00 100 1004.6
20211017103334 42 142 0.9 1.7 0.00 0.52 0.00 100 1004.6
20211017101834 43 190 0.9 2.6 0.00 0.52 0.00 100 1004.6
20211017101331 43 169 0.0 1.7 0.00 0.52 0.00 100 1004.6
20211017100833 42 111 0.9 2.6 0.00 0.52 0.00 100 1004.6
20211017100334 42 158 0.0 2.6 0.00 0.52 0.00 100 1004.7
20211017094834 42 172 0.9 1.7 0.00 0.52 0.00 100 1004.5
20211017094331 42 172 0.9 1.7 0.00 0.52 0.00 100 1004.5
20211017093832 42 172 0.9 1.7 0.00 0.52 0.00 100 1004.5
20211017093334 42 172 0.9 2.6 0.00 0.52 0.00 100 1004.3
20211017091834 43 162 0.0 2.6 0.00 0.52 0.00 100 1004.0
20211017091332 43 191 0.0 4.3 0.00 0.52 0.00 100 1004.0
20211017090831 43 161 0.9 4.3 0.00 0.52 0.00 100 1004.0
20211017090334 43 165 1.7 2.6 0.00 0.52 0.00 100 1003.9
20211017084834 43 97 0.9 2.6 0.00 0.52 0.00 100 1003.9
20211017084331 43 102 0.9 2.6 0.00 0.52 0.00 100 1003.9
20211017083831 43 140 0.9 2.6 0.00 0.52 0.00 100 1003.8
20211017083334 44 124 0.9 2.6 0.00 0.52 0.00 100 1003.8
20211017081834 44 352 0.9 4.3 0.00 0.52 0.00 100 1003.9
20211017081331 44 123 1.7 2.6 0.00 0.52 0.00 100 1003.7
20211017080834 44 113 0.9 2.6 0.00 0.52 0.00 100 1003.6
20211017080334 44 139 0.9 2.6 0.00 0.52 0.00 100 1003.5
20211017074834 44 250 1.7 2.6 0.00 0.52 0.00 100 1003.8
20211017074331 44 131 0.9 2.6 0.00 0.52 0.00 100 1003.8
20211017073831 44 107 0.9 2.6 0.00 0.52 0.00 100 1003.8
20211017073337 44 122 0.9 2.6 0.00 0.52 0.00 100 1003.8
20211017071832 44 235 0.9 1.7 0.00 0.52 0.00 100 1003.8
20211017071335 44 130 0.9 2.6 0.00 0.52 0.00 100 1003.8
20211017070832 45 353 0.9 2.6 0.00 0.52 0.00 100 1003.8
20211017070332 45 284 0.9 4.3 0.00 0.52 0.00 100 1003.7
20211017064850 45 51 0.9 2.6 0.00 0.52 0.00 100 1003.6
20211017064331 45 84 0.0 2.6 0.00 0.52 0.00 100 1003.7
20211017063831 45 344 1.7 4.3 0.00 0.52 0.00 100 1003.7
20211017063331 45 134 0.9 6.1 0.00 0.52 0.00 100 1003.7
20211017061835 45 89 0.9 1.7 0.00 0.52 0.00 100 1003.7
20211017061331 45 73 1.7 2.6 0.00 0.52 0.00 100 1003.7
20211017060832 45 351 1.7 2.6 0.00 0.52 0.00 100 1003.7
20211017060332 45 266 0.9 2.6 0.00 0.52 0.00 100 1003.3
20211017054831 46 170 0.0 2.6 0.00 0.52 0.00 100 1003.2
20211017054334 46 294 0.9 4.3 0.00 0.52 0.00 100 1003.2
20211017053835 46 172 1.7 2.6 0.00 0.52 0.00 100 1003.2
20211017053334 47 98 0.9 6.1 0.00 0.52 0.00 100 1003.4
20211017051831 47 188 0.9 2.6 0.00 0.52 0.00 100 1003.4
20211017051331 47 65 0.9 1.7 0.00 0.52 0.00 100 1003.4
20211017050835 47 342 0.9 2.6 0.00 0.52 0.00 100 1003.4
20211017050332 47 110 0.0 2.6 0.00 0.52 0.00 100 1003.3
20211017044831 47 88 0.9 2.6 0.00 0.52 0.00 100 1003.4
20211017044335 47 210 1.7 2.6 0.00 0.52 0.00 100 1003.4
20211017043831 47 90 0.0 2.6 0.00 0.52 0.00 100 1003.4
20211017043335 47 167 0.9 4.3 0.00 0.52 0.00 100 1003.4
20211017041834 47 135 0.9 1.7 0.00 0.52 0.00 100 1003.6
20211017041331 47 151 1.7 2.6 0.00 0.52 0.00 100 1003.6
20211017040835 47 153 0.0 2.6 0.00 0.52 0.00 100 1003.6
20211017040334 47 353 0.9 2.6 0.00 0.52 0.00 100 1003.7
20211017034834 47 30 1.7 2.6 0.00 0.52 0.52 100 1003.8
20211017034331 47 281 0.0 1.7 0.00 0.52 0.52 100 1003.9
20211017033832 47 233 0.9 2.6 0.00 0.52 0.52 100 1003.8
20211017033331 47 194 0.0 2.6 0.00 0.52 0.52 100 1003.7
20211017031831 47 163 0.9 2.6 0.00 0.52 0.52 100 1003.7
20211017031331 47 155 0.9 2.6 0.00 0.52 0.52 100 1003.6
20211017030831 47 127 0.9 2.6 0.00 0.52 0.52 100 1003.5
20211017030331 47 202 1.7 2.6 0.00 0.52 0.52 100 1003.7
20211017024832 47 228 0.0 1.7 0.00 0.52 0.52 100 1003.7
20211017024334 47 78 0.9 2.6 0.00 0.52 0.52 100 1003.9
20211017023831 47 173 0.9 1.7 0.00 0.52 0.52 100 1004.1
20211017023334 47 192 0.0 4.3 0.00 0.52 0.52 100 1003.9
20211017021831 47 118 0.9 2.6 0.00 0.52 0.52 100 1003.9
20211017021331 47 331 1.7 4.3 0.00 0.52 0.52 100 1003.8
20211017020831 48 101 0.9 6.1 0.00 0.52 0.52 100 1003.7
20211017020331 48 128 0.9 2.6 0.00 0.52 0.52 100 1003.8
20211017014831 48 74 0.9 4.3 0.00 0.52 0.52 100 1003.3
20211017014331 49 325 1.7 4.3 0.00 0.52 0.52 100 1003.4
20211017013834 49 348 1.7 2.6 0.00 0.52 0.52 100 1003.5
20211017013331 49 75 1.7 4.3 0.00 0.52 0.52 100 1003.4
20211017011831 49 82 1.7 6.1 0.00 0.52 0.52 100 1003.4
20211017011332 50 155 1.7 2.6 0.00 0.52 0.52 100 1003.4
20211017010835 50 117 0.9 2.6 0.00 0.52 0.52 100 1002.9
20211017010331 50 99 1.7 5.2 0.00 0.52 0.52 100 1002.9
20211017004834 50 334 1.7 2.6 0.01 0.52 0.52 100 1002.2
20211017004331 50 271 0.9 4.3 0.01 0.52 0.52 100 1002.0
20211017003831 51 92 1.7 2.6 0.01 0.52 0.52 100 1001.8
20211017003331 51 26 0.9 8.7 0.01 0.52 0.52 100 1001.8
20211017001831 51 46 1.7 2.6 0.02 0.52 0.52 100 1001.9
20211017001331 51 153 0.9 2.6 0.02 0.52 0.52 100 1001.8
20211017000834 51 323 1.7 2.6 0.03 0.52 0.52 100 1001.4
20211017000332 51 90 1.7 5.2 0.04 0.52 0.52 100 1001.4
20211016234831 51 194 1.7 5.2 0.03 0.51 0.51 100 1002.0
20211016234334 51 275 1.7 2.6 0.03 0.51 0.51 100 1001.5
20211016233834 51 90 0.9 5.2 0.04 0.51 0.51 100 1001.3
20211016233331 51 156 0.9 5.2 0.05 0.51 0.51 100 1001.2
20211016231834 51 46 0.9 2.6 0.06 0.50 0.50 100 1001.4
20211016231331 51 288 1.7 2.6 0.07 0.50 0.50 100 1001.7
20211016230834 51 93 1.7 2.6 0.06 0.49 0.49 100 1001.8
20211016230335 51 355 1.7 5.2 0.06 0.49 0.49 100 1002.0
20211016224831 51 36 0.9 2.6 0.09 0.49 0.49 100 1001.9
20211016224331 51 233 1.7 7.8 0.10 0.49 0.49 100 1001.5
20211016223831 52 105 4.3 4.3 0.11 0.48 0.48 100 1001.4
20211016223331 52 264 1.7 10.4 0.13 0.47 0.47 100 1001.3
20211016221834 53 88 2.6 7.8 0.21 0.45 0.45 100 1000.9
20211016221332 53 354 1.7 10.4 0.20 0.44 0.44 100 1000.7
20211016220831 53 93 1.7 2.6 0.20 0.44 0.44 100 1000.2
20211016220335 53 32 1.7 7.0 0.19 0.43 0.43 100 1000.0
20211016214834 54 52 1.7 5.2 0.17 0.40 0.40 100 1000.6
20211016214331 54 130 2.6 8.7 0.16 0.39 0.39 100 1000.6
20211016213831 55 283 2.6 8.7 0.14 0.37 0.37 100 1000.4
20211016213334 57 40 1.7 7.8 0.11 0.34 0.34 100 999.8
20211016211833 57 176 0.9 2.6 0.03 0.24 0.24 100 998.7
20211016211334 57 331 0.9 2.6 0.04 0.24 0.24 100 998.2
20211016210831 57 264 2.6 6.1 0.05 0.24 0.24 100 998.0
20211016210334 57 268 1.7 6.1 0.05 0.24 0.24 100 998.1
20211016204833 58 5 0.9 2.6 0.05 0.23 0.23 100 998.3
20211016204331 58 250 0.9 2.6 0.05 0.23 0.23 100 998.5
20211016203831 58 180 1.7 4.3 0.05 0.23 0.23 100 998.5
20211016203334 58 251 0.0 2.6 0.05 0.23 0.23 100 998.7
20211016201834 58 188 1.7 2.6 0.03 0.21 0.21 100 998.4
20211016201331 58 177 0.0 2.6 0.02 0.20 0.20 100 998.4
20211016200831 58 135 0.9 5.2 0.01 0.19 0.19 100 998.1
20211016200334 58 184 2.6 6.1 0.01 0.19 0.19 100 998.4
20211016194834 59 189 0.0 2.6 0.00 0.18 0.18 100 998.6
20211016194331 59 189 0.0 1.7 0.00 0.18 0.18 100 998.5
20211016193831 59 189 0.9 2.6 0.00 0.18 0.18 100 998.2
20211016193334 59 168 0.0 2.6 0.00 0.18 0.18 100 998.1
20211016191831 59 200 0.9 2.6 0.16 0.18 0.18 100 998.0
20211016191332 59 184 1.7 4.3 0.18 0.18 0.18 100 997.9
20211016190831 59 242 0.9 2.6 0.18 0.18 0.18 100 997.9
20211016190331 59 155 0.0 2.6 0.18 0.18 0.18 100 997.9
20211016184834 60 131 0.9 2.6 0.18 0.18 0.18 100 997.8
20211016184331 60 131 0.9 2.6 0.18 0.18 0.18 100 997.8
20211016183831 60 289 1.7 4.3 0.18 0.18 0.18 100 997.9
20211016183331 61 230 0.9 10.4 0.18 0.18 0.18 100 997.8
20211016181834 68 171 3.5 8.7 0.02 0.02 0.02 100 997.0
20211016181334 69 145 1.7 6.1 0.00 0.00 0.00 100 995.4
20211016180831 69 196 2.6 10.4 0.00 0.00 0.00 99 995.4
20211016180331 70 161 2.6 10.4 0.00 0.00 0.00 99 995.6
20211016174834 71 125 4.3 10.4 0.00 0.00 0.00 97 995.8
20211016174334 71 141 4.3 15.6 0.00 0.00 0.00 97 995.9
20211016173831 69 155 3.5 11.3 0.00 0.00 0.00 99 996.0
20211016173334 69 158 5.2 13.9 0.00 0.00 0.00 98 996.2
20211016171833 70 151 6.1 15.6 0.00 0.00 0.00 96 996.0
20211016171331 70 139 4.3 15.6 0.00 0.00 0.00 97 996.2
20211016170831 71 165 5.2 13.0 0.00 0.00 0.00 96 996.2
20211016170331 71 158 6.1 20.0 0.00 0.00 0.00 97 996.4
20211016164831 72 200 6.1 17.4 0.00 0.00 0.00 97 996.7
20211016164331 71 154 10.4 13.9 0.00 0.00 0.00 96 996.8
20211016163834 71 150 7.8 14.8 0.00 0.00 0.00 96 996.9
20211016163331 71 172 4.3 18.2 0.00 0.00 0.00 97 997.0
20211016161831 71 148 7.8 14.8 0.00 0.00 0.00 96 997.1
20211016161331 71 135 7.8 14.8 0.00 0.00 0.00 99 997.4
20211016160830 70 193 7.8 21.7 0.00 0.00 0.00 99 997.5
20211016160332 70 205 6.1 15.6 0.00 0.00 0.00 100 997.4